星链-33742 (STARLINK-33742)

导读

STARLINK-33742是美国SpaceX公司星链星座的成员卫星,于2025年3月26日发射升空,部署在近地轨道。星链项目旨在为全球提供高速低时延宽带互联网服务,尤其覆盖偏远地区。该卫星采用相控阵天线、氩气推进技术,依托低轨优势大幅降低传输时延,支撑视频通话、在线交互等应用,是星链全球网络基础设施建设的重要组成部分。

Basic Information
目录编号:
63366
目录名称:
STARLINK-33742
国际标识:
2025-063D
轨道中心:
EARTH
卫星名称:
星链-33742
卫星全名:
星链-33742 (STARLINK-33742)
卫星状态:
在轨 (已飞行535 天)
发射日期:
2025-03-26 UTC
国别 :
美国 (US)
星等 :
--
This satellite is enrolled in the Space Conjunction Data Service (SCDS) and the current flight risk assessment level is: No High Risk
Orbit Information
数据来源 国际轨道数据
星历时间: 2026-09-11T16:04:09+0800
1天前
查看轨道信息
半长轴: 6840.821km
偏心率: 0.000129
轨道倾角: 53.156°
近地点辐角 74.891°
升交点赤经 268.678°
平近点角 285.224°
近地点: 461.801km
远地点: 463.567km
周期: 93.847分钟
每日圈数: 15.344066
Detailed Information
固有亮度:
5
最大亮度:
2.5
卫星平台:
Starlink V1.0
覆盖范围:
全球
运营商:
太空探索技术公司
运营商所在国:
美国
制造商(研发单位):
太空探索技术公司
制造商所在国:
美国
使用方式:
暂无
Satellite Introduction
Starlink 计划是 SpaceX 推出的全球卫星互联网项目,通过发射低轨道卫星,为全球尤其是偏远地区提供高速、低延迟的互联网服务。自 2019 年起,Starlink 已部署数千颗卫星,旨在缩小全球数字鸿沟,推动互联网普及。该项目还为军事、航空等行业提供通信支持,带来广泛经济效益。
2D Orbit Map
3D Orbit Map
Orbit Altitude Analysis Chart
Orbit Inclination Analysis Chart
Orbit Comprehensive Analysis Chart
View Comprehensive Chart
Conjunction Data List
Event ID Objects TCA Miss Dist (km) Collision Risk Probability Collision Risk Index (CRI) Action
CDM_260913-075905-973006-336621
2026-09-13T
07:59:50+0000
0.823 km
远距离
2.655628E-5 中风险 0.63
CDM_260914-132505-468906-336621
OBJECT H (54689)
2026-09-14T
13:25:55+0000
1.356 km
极远距离
9.41406E-6 低风险 0.54
CDM_260914-195906-336606-925721
2026-09-14T
19:59:26+0000
1.613 km
极远距离
3.297095E-6 低风险 0.45
CDM_260909-035405-146906-336621
2026-09-09T
03:54:42+0000
2.323 km
极远距离
1.600096E-6 低风险 0.39
CDM_260912-195305-313706-336621
2026-09-12T
19:53:21+0000
2.773 km
极远距离
1.283396E-6 低风险 0.37
CDM_260914-125706-336606-925721
2026-09-14T
12:57:22+0000
2.557 km
极远距离
1.110957E-6 低风险 0.36
CDM_260914-112306-336606-925721
2026-09-14T
11:23:35+0000
2.617 km
极远距离
1.071579E-6 低风险 0.36
CDM_260914-213306-336606-925721
2026-09-14T
21:33:14+0000
2.908 km
极远距离
9.263312E-7 极低风险 0.34
CDM_260913-120105-200006-336621
2026-09-13T
12:01:51+0000
2.940 km
极远距离
4.006185E-7 极低风险 0.27
Miss Distance Evolution Trend with All Objects
Collision Probability Evolution Trend with All Objects